Voltar ao catálogo

BREEZE-M DEB

TANK

AtivoHEO
NORAD 42936·DEBRIS·🇷🇺 Russia

Lançado Sep 11, 2017 de Baikonur Cosmodrome

Loading…

Próximas Passagens (próximas 24 horas)

TLE

AtualizadoSource: Space-Track

Época: Sep 14, 2026, 22:16 UTC

1 42936U 17053C   26257.92842701  .00004358  00000-0  75054-3 0  9999
2 42936  49.4316 189.4854 5102055  69.6207 336.8289  5.44928885174767

Acompanhe BREEZE-M DEB em tempo real com AllMySat

Download on the App Store